NOAA 16 DEB, 41659

Orbit data source: Space-Track

NOAA 16 DEB, 41659 is space debris in SSO originally from a launch on Thu, 21 Sep 2000 UTC launched from the Air Force Western Test Range (AFWTR). Debris objects in space refer to the collection of defunct objects orbiting the Earth. Examples of debris include non-operational satellites, rocket bodies, and fragments generated from explosions, collisions, or faulty payload assembly.

Loading next visibility...
Identifier
41659, 2000-055NY
Orbit
SSO
Country
Flag of USUS
Related business
Manufacturer
Unknown
Mission
Spacecraft
Bus & Motor
Unknown
Mass
Unknown
Launch date (UTC)
Icon of a cake. It is the launch day of the satellite!2000-09-21 (26 years ago)
Launch vehicle
Unknown
Launch site
Air Force Western Test Range (AFWTR)
Object type
Payload
Rocket body
Debris
Shape & HBR
Unknown shape, 0.1 m
Radar Cross Section
Medium (>0.1 m² and <1 m²)

Expand to show TLE details & history
Last TLE update: 9 hours ago

TLE from 9 hours ago
0 NOAA 16 DEB
1 41659U 00055NY  26264.23522547  .00005452  00000-0  13915-2 0  9992
2 41659  98.8777  54.1787 0012713 197.3098 162.7663 14.50901790541216
Epoch: 2026-09-21T05:38Z
TLE epoch observation values (Epoch: 2026-09-21T05:38:43.480Z)
Latitude
-0.00005°
Longitude
-30.62043°
Altitude
734.281 km
Speed
7.483 km/s
True Right ascension
03h 36m 42s
True Declination
0° 00' 00"
Sunlit
Object was in full shadow at epoch
Visualization orbit readout
Latitude
Unknown
Longitude
Unknown
Altitude
Unknown
Speed
Unknown
Apparent Right ascension
Unknown
Apparent Declination
Unknown
Sunlit
N/A
Visualization observer readout
Local Sidereal Time
08:08:18
Azimuth
Unknown
Elevation
Unknown
Doppler factor
Unknown
Orbital elements
Apogee altitude
728.854 km
Perigee altitude
710.807 km
Semi-major axis
7,097.967 km
Eccentricity
0.00127
Inclination
98.8777°
RAAN
54.1787°
Arg. of periapsis
197.3098°
True anomaly
162.8094°
Mean anomaly
162.7663°
Eccentric anomaly
162.78785°
Mean motion
3.62946 °/min
Orbital period
99.19 mins
BSTAR
0.0013915
Loading maneuver chart data...
Computing Atmospheric mass density...

Documentation

Showing up to 5 results
|